Regional Weather Roundup
Issued by NWS Goodland, KS

Home | Current Version | Previous Version | Text Only | Print | Product List | Glossary On
Versions: 1 2 3 4 5 6 7 8 9 10 11 12 13 14 15 16 17 18 19 20 21 22 23 24 25 26 27 28 29 30 31 32 33 34 35 36 37 38 39 40 41 42 43 44 45 46 47 48 49 50
000
ASUS43 KGLD 281608
RWRGLD

GOODLAND FORECAST AREA HOURLY WEATHER ROUNDUP
NATIONAL WEATHER SERVICE GOODLAND KS
900 AM MST SUN DEC 28 2014

...OFFICIAL OBSERVATIONS...

CITY           SKY/WX    TMP DP  RH WIND       PRES   REMARKS
GOODLAND KS    SUNNY     16   9  74 NW3       30.01S
HILL CITY KS   SUNNY     17  11  77 SW3       30.13S
IMPERIAL NEB   PTSUNNY   10   3  73 CALM      30.02F
MCCOOK NEB     PTSUNNY   11   5  77 W9        30.08R
AKRON CO       CLOUDY    21  10  62 SW10      29.93F WCI  10
BURLINGTON CO  SUNNY     15  10  80 SW6       29.97F
LIMON CO       PTSUNNY   12   8  84 CALM      29.91F
$$

...UNOFFICIAL OBSERVATIONS...

CITY           SKY/WX    TMP DP  RH WIND       PRES   REMARKS
COLBY KS       SUNNY     18  16  93 W5        30.06S
NORTON KS      SUNNY     18  10  73 SW8       30.09R
SHARON SPRINGS   N/A     19  15  85 CALM        N/A
TRIBUNE KS     MOSUNNY   16  14  93 CALM      30.03F
KIT CARSON CO    N/A     20  16  83 MISG        N/A
YUMA CO          N/A     16  10  76 CALM        N/A
$$


USA.gov is the U.S. government's official web portal to all federal, state and local government web resources and services.